| time (UTC) | temp C | wind direction | speed KPH | gust KPH | rain 1hr cm | rain 24hr cm | rain mn cm | humidity % | barometer mb |
| 20260503220713 | 32 | 281 | 3.2 | 8.0 | 0.00 | 0.00 | 0.00 | 11 | 1007.3 |
| 20260503215213 | 32 | 83 | 3.2 | 8.0 | 0.00 | 0.00 | 0.00 | 13 | 1007.5 |
| 20260503213712 | 32 | 68 | 3.2 | 6.4 | 0.00 | 0.00 | 0.00 | 12 | 1007.8 |
| 20260503212212 | 31 | 219 | 3.2 | 8.0 | 0.00 | 0.00 | 0.00 | 13 | 1007.9 |
| 20260503210711 | 31 | 62 | 3.2 | 8.0 | 0.00 | 0.00 | 0.00 | 13 | 1008.1 |
| 20260503205916 | 31 | 66 | 3.2 | 8.0 | 0.00 | 0.00 | 0.00 | 14 | 1008.3 |
| 20260503203711 | 31 | 65 | 3.2 | 6.4 | 0.00 | 0.00 | 0.00 | 15 | 1008.4 |
| 20260503202210 | 30 | 72 | 3.2 | 9.7 | 0.00 | 0.00 | 0.00 | 16 | 1008.5 |
| 20260503200711 | 30 | 59 | 3.2 | 8.0 | 0.00 | 0.00 | 0.00 | 15 | 1008.6 |
| 20260503195209 | 29 | 278 | 1.6 | 11.3 | 0.00 | 0.00 | 0.00 | 18 | 1009.0 |
| 20260503193709 | 30 | 63 | 3.2 | 8.0 | 0.00 | 0.00 | 0.00 | 17 | 1009.2 |
| 20260503192907 | 28 | 23 | 1.6 | 6.4 | 0.00 | 0.00 | 0.00 | 22 | 1009.2 |
| 20260503190708 | 27 | 185 | 3.2 | 4.8 | 0.00 | 0.00 | 0.00 | 22 | 1009.4 |
| 20260503185208 | 26 | 68 | 0.0 | 0.0 | 0.00 | 0.00 | 0.00 | 27 | 1009.6 |
| 20260503183708 | 26 | 39 | 0.0 | 0.0 | 0.00 | 0.00 | 0.00 | 28 | 1009.8 |
| 20260503182207 | 25 | 87 | 0.0 | 0.0 | 0.00 | 0.00 | 0.00 | 30 | 1010.0 |
| 20260503180708 | 25 | 155 | 0.0 | 0.0 | 0.00 | 0.00 | 0.00 | 32 | 1010.1 |
| 20260503175902 | 23 | 51 | 0.0 | 0.0 | 0.00 | 0.00 | 0.00 | 33 | 1010.2 |
| 20260503173706 | 23 | 258 | 0.0 | 0.0 | 0.00 | 0.00 | 0.00 | 36 | 1010.3 |
| 20260503172206 | 22 | 286 | 0.0 | 0.0 | 0.00 | 0.00 | 0.00 | 36 | 1010.4 |
| 20260503170706 | 22 | 69 | 0.0 | 0.0 | 0.00 | 0.00 | 0.00 | 40 | 1010.4 |
| 20260503150703 | 15 | 157 | 0.0 | 0.0 | 0.00 | 0.00 | 0.00 | 64 | 1010.8 |
| 20260503130700 | 11 | 157 | 0.0 | 0.0 | 0.00 | 0.00 | 0.00 | 75 | 1010.3 |
| 20260503110657 | 12 | 157 | 0.0 | 0.0 | 0.00 | 0.00 | 0.00 | 70 | 1010.7 |
| 20260503080654 | 14 | 157 | 0.0 | 0.0 | 0.00 | 0.00 | 0.00 | 66 | 1011.2 |
| 20260503072152 | 15 | 157 | 0.0 | 0.0 | 0.00 | 0.00 | 0.00 | 64 | 1011.3 |
| 20260503070652 | 15 | 157 | 0.0 | 0.0 | 0.00 | 0.00 | 0.00 | 63 | 1011.1 |
| 20260503053650 | 16 | 240 | 0.0 | 0.0 | 0.00 | 0.00 | 0.00 | 60 | 1010.9 |
| 20260503052149 | 17 | 151 | 0.0 | 0.0 | 0.00 | 0.00 | 0.00 | 59 | 1011.2 |
| 20260503050649 | 17 | 151 | 0.0 | 0.0 | 0.00 | 0.00 | 0.00 | 59 | 1011.6 |
| 20260503045149 | 17 | 151 | 0.0 | 0.0 | 0.00 | 0.00 | 0.00 | 58 | 1011.4 |
| 20260503043649 | 17 | 151 | 0.0 | 0.0 | 0.00 | 0.00 | 0.00 | 58 | 1011.3 |
| 20260503042149 | 17 | 151 | 0.0 | 0.0 | 0.00 | 0.00 | 0.00 | 58 | 1011.4 |
| 20260503041343 | 17 | 151 | 0.0 | 0.0 | 0.00 | 0.00 | 0.00 | 57 | 1011.5 |
| 20260503035148 | 18 | 151 | 0.0 | 0.0 | 0.00 | 0.00 | 0.00 | 56 | 1011.3 |
| 20260503033648 | 18 | 151 | 0.0 | 0.0 | 0.00 | 0.00 | 0.00 | 55 | 1011.1 |
| 20260503032847 | 18 | 151 | 0.0 | 0.0 | 0.00 | 0.00 | 0.00 | 54 | 1011.1 |
| 20260503030647 | 18 | 151 | 0.0 | 0.0 | 0.00 | 0.00 | 0.00 | 54 | 1011.2 |
| 20260503025146 | 18 | 135 | 0.0 | 0.0 | 0.00 | 0.00 | 0.00 | 53 | 1011.2 |
| 20260503023646 | 19 | 155 | 0.0 | 11.3 | 0.00 | 0.00 | 0.00 | 52 | 1011.2 |
| 20260503022146 | 20 | 92 | 0.0 | 14.5 | 0.00 | 0.00 | 0.00 | 48 | 1011.2 |
| 20260503021340 | 21 | 125 | 4.8 | 9.7 | 0.00 | 0.00 | 0.00 | 46 | 1010.8 |
| 20260503015145 | 22 | 200 | 1.6 | 6.4 | 0.00 | 0.00 | 0.00 | 44 | 1010.3 |
| 20260503013645 | 22 | 221 | 1.6 | 1.6 | 0.00 | 0.00 | 0.00 | 45 | 1010.2 |
| 20260503012846 | 22 | 230 | 0.0 | 1.6 | 0.00 | 0.00 | 0.00 | 45 | 1010.0 |
| 20260503011347 | 21 | 230 | 1.6 | 3.2 | 0.00 | 0.00 | 0.00 | 46 | 1010.2 |
| 20260503005144 | 21 | 221 | 1.6 | 3.2 | 0.00 | 0.00 | 0.00 | 45 | 1010.0 |
| 20260503003643 | 21 | 282 | 0.0 | 4.8 | 0.00 | 0.00 | 0.00 | 45 | 1010.1 |
| 20260503002143 | 21 | 268 | 1.6 | 4.8 | 0.00 | 0.00 | 0.00 | 46 | 1010.2 |
| 20260503000642 | 21 | 279 | 3.2 | 4.8 | 0.00 | 0.00 | 0.00 | 43 | 1010.2 |
| 20260502235142 | 21 | 223 | 0.0 | 4.8 | 0.00 | 0.00 | 0.00 | 45 | 1010.2 |
| 20260502233642 | 21 | 296 | 0.0 | 4.8 | 0.00 | 0.00 | 0.00 | 44 | 1010.4 |
| 20260502232142 | 21 | 248 | 1.6 | 6.4 | 0.00 | 0.00 | 0.00 | 43 | 1010.5 |
| 20260502230641 | 22 | 97 | 1.6 | 4.8 | 0.00 | 0.00 | 0.00 | 43 | 1010.7 |
| 20260502225138 | 21 | 79 | 1.6 | 6.4 | 0.00 | 0.00 | 0.00 | 45 | 1010.9 |
| 20260502223638 | 21 | 219 | 1.6 | 4.8 | 0.00 | 0.00 | 0.00 | 45 | 1011.2 |
| 20260502222135 | 21 | 227 | 0.0 | 6.4 | 0.00 | 0.00 | 0.00 | 46 | 1011.4 |